Flag for Canada Weather past 2 weeks in Montreal, Quebec, Canada

Now
70 °F

Overcast.


Feels Like: 70 °F
Forecast: 70 / 77 °F
Wind: 9 mph from Southeast

Location: Montreal - Pierre Elliot Trudeau International Aiport

Current Time: Aug 31, 2014 at 3:03:19 AM

Latest Report: Aug 31, 2014 at 2:00 AM


Visibility: 15 mi

Pressure: 29.88 "Hg

Humidity: 83%

Dew point: 64 °F

Location of MontrealLocation

Historic Weather in Montreal — Graph

°F

Montreal temperature yesterday

Maximum temperature yesterday: 79 °F (at 2:00 PM)
Minimum temperature yesterday: 63 °F (at 3:00 AM)
Average temperature yesterday: 71 °F

Past Weeks' High & Low Weather Summary

 TemperatureHumidityPressure
High84 °F (Aug 26, 4:00 PM)100% (Aug 23, 8:00 AM)30.23 "Hg (Aug 23, 8:00 AM)
Low52 °F (Aug 19, 5:00 AM)43% (Aug 28, 12:00 PM)29.73 "Hg (Aug 17, 2:46 AM)
Average68 °F70%30.00 "Hg
* Reported Aug 16 1:00 AM — Aug 31 1:00 AM, Montreal, Weather by CustomWeather, © 2014

Note: Actual official high and low records may vary slightly from our data, if they occured in-between our weather recording intervals... More about our weather records

Advertising

Montreal weather history for previous 24 hours

 ConditionsComfort  
Time TempWeatherWind HumidityBarometerVisibility
1:00 AM
Aug 31
72 °FMostly cloudy.12 mph73%29.90 "Hg15 mi
12:00 AM72 °FMostly cloudy.12 mph73%29.91 "Hg15 mi
11:00 PM
Aug 30
72 °FPassing clouds.13 mph73%29.93 "Hg15 mi
10:00 PM72 °FPassing clouds.12 mph73%29.93 "Hg15 mi
9:00 PM73 °FPartly cloudy.13 mph69%29.94 "Hg15 mi
8:00 PM73 °FCloudy.10 mph69%29.94 "Hg15 mi
7:00 PM75 °FPartly sunny.10 mph65%29.95 "Hg30 mi
6:00 PM75 °FPartly sunny.10 mph65%29.96 "Hg30 mi
5:00 PM77 °FPartly sunny.14 mph57%29.98 "Hg30 mi
4:00 PM79 °FPartly sunny.14 mph58%30.00 "Hg30 mi
3:00 PM79 °FPartly sunny.14 mph58%30.02 "Hg30 mi
2:00 PM79 °FPartly sunny.13 mph51%30.04 "Hg30 mi
1:00 PM77 °FPartly sunny.12 mph54%30.06 "Hg30 mi
12:00 PM75 °FBroken clouds.14 mph54%30.07 "Hg30 mi
11:00 AM75 °FBroken clouds.15 mph54%30.09 "Hg30 mi
10:00 AM72 °FBroken clouds.13 mph61%30.10 "Hg30 mi
9:00 AM70 °FBroken clouds.7 mph64%30.11 "Hg15 mi
8:00 AM64 °FPartly sunny.12 mph73%30.11 "Hg15 mi
7:00 AM64 °FPassing clouds.10 mph73%30.12 "Hg15 mi
6:00 AM63 °FPassing clouds.8 mph77%30.12 "Hg15 mi
5:00 AM63 °FPassing clouds.6 mph77%30.12 "Hg15 mi
4:00 AM63 °FPartly cloudy.7 mph77%30.13 "Hg15 mi
3:00 AM63 °FPassing clouds.9 mph77%30.14 "Hg15 mi
Weather by CustomWeather, © 2014

See weather overviewHow to use our weather pages